Weather History for Santee, CA

Change the Weather History Date:

Sunday, October 21, 2012

  Actual Average Record
Temperature  
Mean Temperature 66 °F -  
Max Temperature 71 °F 78 °F 100 °F (1999)
Min Temperature 62 °F 52 °F 46 °F (1996)
Cooling Degree Days 2    
Growing Degree Days 16 (Base 50)    
Moisture  
Dew Point 61 °F    
Average Humidity 91    
Maximum Humidity 100    
Minimum Humidity 57    
Precipitation  
Precipitation 0.00 in - - ()
Sea Level Pressure  
Sea Level Pressure 29.91 in    
Wind  
Wind Speed 2 mph (WSW)    
Max Wind Speed 7 mph    
Max Gust Speed -    
Visibility 9 miles    
Events      
Averages and records for this station are not official NWS values.
T = Trace of Precipitation, MM = Missing Value Source: NWS Daily Summary

Daily Weather History Graph

Daily Weather History Graph

Search for Another Location

Airport:

Trip Planner

Search our weather history database for the weather conditions in past years. The results will help you decide how hot, cold, wet, or windy it might be!

Date:

Astronomy

Oct. 21, 2012 Rise Set
Actual Time 6:57 AM PDT 6:07 PM PDT
Civil Twilight 6:32 AM PDT 6:32 PM PDT
Nautical Twilight 6:03 AM PDT 7:01 PM PDT
Astronomical Twilight 5:34 AM PDT 7:29 PM PDT
Moon 1:15 PM PDT (10/21) No Moon Set
Length of Visible Light 12h 00m
Length of Day
11h 10m
Waxing Crescent, 46% of the Moon is Illuminated
Oct 21
Waxing Crescent
Oct 21
First Quarter
Oct 29
Full
Nov 6
Last Quarter
Nov 13
New

Hourly Weather History & Observations

Time (PDT) Temp. Dew Point Humidity Pressure Visibility Wind Dir Wind Speed Gust Speed Precip Events Conditions
12:15 AM 62.6 °F 60.8 °F 94% 29.91 in 10.0 mi SSW 3.5 mph - N/A   Overcast
12:35 AM 62.6 °F 60.8 °F 94% 29.91 in 10.0 mi South 4.6 mph - N/A   Overcast
12:55 AM 62.6 °F 60.8 °F 94% 29.91 in 10.0 mi Calm Calm - N/A   Overcast
1:15 AM 62.6 °F 60.8 °F 94% 29.91 in 10.0 mi SE 3.5 mph - N/A   Overcast
1:35 AM 62.6 °F 60.8 °F 94% 29.91 in 10.0 mi Calm Calm - N/A   Overcast
1:55 AM 62.6 °F 60.8 °F 94% 29.91 in 10.0 mi Calm Calm - N/A   Overcast
2:15 AM 62.6 °F 60.8 °F 94% 29.91 in 10.0 mi Calm Calm - N/A   Overcast
2:35 AM 62.6 °F 60.8 °F 94% 29.90 in 10.0 mi Calm Calm - N/A   Overcast
2:55 AM 62.6 °F 60.8 °F 94% 29.90 in 10.0 mi Calm Calm - N/A   Overcast
3:15 AM 62.6 °F 60.8 °F 94% 29.89 in 10.0 mi Calm Calm - N/A   Overcast
3:35 AM 62.6 °F 60.8 °F 94% 29.89 in 10.0 mi Calm Calm - N/A   Overcast
3:55 AM 62.6 °F 60.8 °F 94% 29.89 in 7.0 mi Calm Calm - N/A   Light Drizzle
4:15 AM 62.6 °F 62.6 °F 100% 29.89 in 2.0 mi Calm Calm - N/A   Light Drizzle
4:35 AM 62.6 °F 62.6 °F 100% 29.88 in 5.0 mi Calm Calm - N/A   Overcast
4:55 AM 62.6 °F 62.6 °F 100% 29.88 in 10.0 mi Calm Calm - N/A   Overcast
5:15 AM 62.6 °F 62.6 °F 100% 29.89 in 6.0 mi Calm Calm - N/A   Light Drizzle
5:35 AM 62.6 °F 62.6 °F 100% 29.89 in 7.0 mi Calm Calm - N/A   Overcast
5:55 AM 62.6 °F 62.6 °F 100% 29.90 in 6.0 mi Calm Calm - N/A   Light Drizzle
6:15 AM 62.6 °F 62.6 °F 100% 29.90 in 8.0 mi Calm Calm - N/A   Overcast
6:47 AM 62.6 °F 62.6 °F 100% 29.89 in 2.5 mi Calm Calm - N/A   Overcast
9:50 AM 62.6 °F 62.6 °F 100% 29.94 in 2.5 mi Calm Calm - N/A   Drizzle
10:47 AM 62.6 °F 62.6 °F 100% 29.95 in 6.0 mi Variable 5.8 mph - N/A   Light Drizzle
12:47 PM 69.8 °F 57.2 °F 64% 29.92 in 10.0 mi Variable 6.9 mph - N/A   Mostly Cloudy
1:47 PM 71.6 °F 55.4 °F 57% 29.90 in 15.0 mi SSW 6.9 mph - N/A   Mostly Cloudy
3:47 PM 71.6 °F 57.2 °F 60% 29.89 in 10.0 mi Variable 6.9 mph - N/A   Overcast
8:47 PM 64.4 °F 59.0 °F 83% 29.92 in 7.0 mi Calm Calm - N/A   Mostly Cloudy
9:15 PM 64.4 °F 59.0 °F 83% 29.94 in 10.0 mi West 3.5 mph - N/A   Overcast
9:35 PM 64.4 °F 59.0 °F 83% 29.94 in 10.0 mi West 3.5 mph - N/A   Overcast
9:55 PM 64.4 °F 59.0 °F 83% 29.95 in 10.0 mi NW 3.5 mph - N/A   Overcast
10:15 PM 62.6 °F 60.8 °F 94% 29.95 in 10.0 mi WNW 3.5 mph - N/A   Overcast
10:55 PM 62.6 °F 60.8 °F 94% 29.95 in 10.0 mi Calm Calm - N/A   Overcast
11:15 PM 62.6 °F 60.8 °F 94% 29.95 in 10.0 mi WNW 3.5 mph - N/A   Overcast
11:35 PM 62.6 °F 60.8 °F 94% 29.95 in 10.0 mi WNW 3.5 mph - N/A   Overcast
11:55 PM 62.6 °F 59.0 °F 88% 29.95 in 10.0 mi West 4.6 mph - N/A   Overcast